Temp
-19 -19 -18 -16 -17 -17 -17 -17 -17 -17 -17 -17 -16 -16 -16 -15 -15 -14 -14 -14 -14 -14 -13 -12 -12 -12 -12 -12 -11 -11 -11 -11 -11 -10 -10 -10 -10 -9 -9 -9 -10 -10 -10 -10
-19 -18 -19 -18 -18 -17 -17 -17 -17 -18 -18 -18 -17 -16 -16 -16 -15 -14 -14 -15 -15 -14 -13 -13 -12 -12 -12 -12 -12 -11 -11 -10 -11 -11 -11 -11 -10 -10 -10 -10 -10 -10 -10 -10
-19 -18 -19 -18 -18 -18 -17 -17 -17 -17 -17 -17 -17 -17 -15 -14 -14 -15 -14 -14 -14 -14 -14 -13 -13 -12 -12 -12 -12 -12 -11 -11 -11 -10 -10 -10 -10 -11 -11 -11 -11 -11 -11 -11
-19 -19 -18 -18 -18 -18 -18 -18 -17 -17 -17 -17 -17 -16 -15 -15 -15 -15 -15 -15 -14 -14 -13 -13 -13 -13 -12 -12 -12 -12 -11 -11 -11 -11 -10 -10 -10 -10 -10 -10 -11 -11 -11 -11
-19 -19 -18 -18 -18 -18 -18 -18 -17 -17 -17 -17 -17 -16 -15 -15 -15 -14 -15 -15 -14 -14 -13 -13 -13 -13 -13 -13 -13 -12 -12 -12 -11 -11 -10 -10 -10 -10 -10 -10 -11 -11 -11 -11
-19 -19 -19 -18 -18 -18 -18 -18 -17 -17 -17 -17 -16 -16 -15 -15 -14 -15 -15 -15 -15 -14 -14 -14 -14 -14 -13 -13 -13 -13 -13 -12 -12 -11 -10 -10 -10 -10 -10 -10 -10 -11 -11 -11
-20 -19 -18 -18 -18 -18 -18 -17 -18 -18 -17 -16 -17 -17 -14 -16 -15 -15 -15 -15 -15 -15 -14 -14 -14 -14 -14 -13 -13 -12 -12 -12 -11 -11 -11 -10 -11 -11 -11 -11 -11 -11 -11 -11
-19 -19 -19 -18 -18 -17 -17 -18 -18 -17 -17 -17 -17 -16 -15 -15 -16 -15 -14 -14 -15 -15 -15 -14 -14 -14 -13 -13 -13 -12 -12 -12 -12 -12 -11 -11 -11 -11 -11 -11 -11 -11 -11 -11
-19 -19 -18 -18 -18 -18 -18 -17 -18 -18 -18 -18 -17 -16 -16 -16 -16 -16 -16 -16 -16 -16 -15 -15 -14 -14 -13 -13 -13 -13 -13 -12 -12 -12 -12 -12 -11 -11 -11 -12 -12 -12 -12 -12
-19 -19 -19 -19 -18 -18 -17 -18 -18 -18 -18 -18 -17 -17 -16 -16 -17 -17 -17 -17 -16 -16 -15 -15 -14 -14 -14 -14 -13 -13 -13 -13 -12 -12 -12 -12 -12 -11 -12 -12 -12 -12 -12 -12
-19 -19 -19 -18 -18 -18 -18 -17 -18 -18 -18 -18 -17 -17 -17 -17 -17 -18 -17 -17 -17 -17 -16 -15 -15 -14 -14 -14 -13 -13 -13 -13 -13 -12 -12 -12 -12 -12 -12 -12 -12 -12 -12 -13
-19 -19 -18 -18 -18 -18 -18 -18 -18 -18 -18 -18 -18 -17 -18 -18 -18 -18 -18 -17 -18 -18 -16 -15 -15 -15 -14 -14 -14 -13 -13 -13 -13 -13 -13 -13 -13 -13 -13 -13 -13 -13 -13 -13
-18 -18 -18 -17 -17 -17 -17 -17 -18 -18 -18 -18 -18 -18 -18 -18 -18 -18 -18 -17 -17 -17 -17 -16 -15 -15 -15 -14 -14 -14 -14 -13 -13 -13 -13 -13 -13 -13 -13 -13 -13 -13 -13 -13
-18 -18 -18 -18 -18 -18 -18 -18 -18 -18 -18 -18 -18 -18 -18 -18 -18 -18 -19 -19 -18 -17 -16 -16 -16 -15 -15 -15 -14 -14 -14 -14 -14 -14 -13 -13 -13 -13 -13 -13 -13 -13 -13 -13
-19 -19 -18 -18 -18 -18 -18 -18 -18 -17 -17 -18 -18 -17 -18 -18 -18 -18 -18 -18 -17 -17 -17 -17 -16 -15 -15 -15 -15 -15 -15 -14 -14 -14 -14 -14 -14 -14 -14 -14 -14 -14 -14 -14
-19 -19 -19 -19 -18 -18 -18 -18 -18 -17 -17 -17 -17 -17 -18 -18 -18 -18 -18 -18 -18 -17 -17 -16 -16 -16 -16 -15 -15 -15 -15 -14 -14 -14 -14 -14 -14 -14 -14 -14 -14 -14 -14 -14
-19 -18 -18 -18 -19 -19 -18 -18 -18 -18 -17 -17 -17 -18 -18 -17 -18 -18 -18 -18 -18 -18 -18 -17 -17 -16 -16 -16 -15 -15 -15 -15 -15 -14 -14 -14 -14 -14 -14 -15 -15 -15 -15 -15
-19 -19 -19 -19 -19 -18 -19 -19 -18 -18 -18 -18 -18 -18 -18 -18 -18 -18 -18 -18 -18 -18 -17 -17 -17 -16 -16 -16 -15 -15 -15 -15 -15 -15 -14 -14 -15 -15 -15 -15 -15 -15 -15 -15
-19 -19 -19 -19 -19 -19 -19 -19 -19 -18 -18 -18 -18 -18 -18 -18 -18 -18 -18 -18 -18 -18 -17 -17 -17 -17 -16 -16 -16 -16 -15 -15 -15 -15 -15 -15 -15 -16 -16 -16 -16 -16 -16 -16
-20 -20 -20 -19 -19 -19 -19 -19 -19 -19 -19 -19 -18 -18 -18 -18 -18 -19 -19 -18 -18 -17 -17 -17 -17 -17 -17 -16 -16 -16 -16 -15 -15 -15 -15 -15 -16 -16 -16 -16 -16 -16 -16 -17
-20 -20 -20 -20 -20 -19 -19 -20 -19 -19 -19 -19 -18 -18 -18 -18 -18 -18 -18 -18 -18 -17 -17 -18 -18 -17 -17 -17 -17 -16 -16 -16 -16 -16 -16 -16 -16 -16 -16 -16 -17 -17 -17 -17
-19 -19 -20 -20 -20 -19 -19 -19 -19 -19 -19 -19 -19 -18 -18 -18 -18 -18 -18 -18 -18 -18 -18 -18 -18 -17 -17 -17 -17 -17 -17 -16 -16 -16 -16 -16 -16 -17 -17 -17 -17 -17 -17 -18
-19 -19 -20 -20 -19 -19 -19 -19 -19 -19 -19 -19 -18 -18 -18 -18 -18 -18 -18 -18 -18 -18 -18 -18 -18 -18 -18 -18 -17 -17 -17 -17 -17 -17 -17 -17 -17 -17 -17 -17 -18 -18 -18 -18
-20 -20 -20 -20 -20 -19 -19 -19 -19 -19 -19 -19 -18 -18 -18 -18 -18 -18 -19 -19 -19 -19 -19 -18 -18 -18 -18 -18 -18 -17 -17 -17 -17 -17 -17 -17 -17 -17 -17 -18 -18 -18 -18 -18
-20 -20 -20 -20 -20 -20 -20 -20 -19 -19 -19 -19 -19 -19 -18 -18 -18 -18 -18 -18 -19 -19 -18 -19 -19 -18 -18 -18 -18 -17 -17 -17 -17 -17 -17 -17 -17 -17 -18 -18 -18 -18 -18 -19
-20 -20 -20 -20 -20 -20 -20 -20 -20 -19 -19 -19 -19 -19 -19 -18 -18 -18 -18 -18 -18 -18 -19 -19 -19 -19 -19 -18 -18 -18 -17 -17 -17 -17 -17 -17 -17 -17 -18 -18 -18 -18 -19 -19
Height
5638 5647 5661 5678 5684 5691 5698 5704 5708 5716 5724 5729 5737 5741 5745 5750 5755 5764 5770 5776 5781 5787 5793 5800 5805 5808 5811 5814 5818 5822 5825 5826 5825 5827 5828 5831 5833 5833 5832 5832 5832 5831 5830 5829
5636 5653 5661 5668 5678 5687 5693 5700 5707 5710 5715 5721 5727 5733 5737 5741 5750 5758 5763 5768 5774 5779 5786 5792 5798 5801 5805 5808 5810 5812 5814 5818 5821 5822 5822 5823 5823 5823 5822 5822 5823 5823 5822 5821
5640 5652 5658 5666 5676 5685 5692 5699 5703 5708 5711 5716 5722 5725 5732 5742 5746 5752 5759 5763 5768 5773 5779 5785 5789 5794 5798 5800 5801 5804 5807 5809 5812 5815 5817 5818 5818 5818 5817 5815 5813 5812 5812 5812
5639 5649 5657 5665 5673 5682 5689 5694 5699 5703 5707 5713 5717 5723 5730 5737 5740 5744 5752 5758 5762 5767 5771 5776 5781 5785 5789 5792 5795 5798 5800 5801 5802 5804 5806 5808 5809 5810 5809 5809 5808 5807 5804 5802
5640 5650 5658 5664 5673 5679 5685 5690 5696 5700 5702 5706 5711 5715 5725 5728 5734 5742 5746 5751 5755 5759 5764 5769 5774 5778 5781 5784 5786 5789 5791 5794 5795 5796 5797 5798 5799 5800 5799 5800 5800 5799 5797 5795
5640 5649 5656 5663 5670 5676 5683 5688 5692 5695 5697 5700 5706 5709 5716 5724 5734 5734 5740 5746 5749 5752 5757 5761 5766 5769 5772 5776 5779 5781 5783 5785 5787 5787 5789 5789 5790 5790 5790 5790 5789 5789 5787 5786
5639 5648 5655 5662 5667 5674 5680 5684 5687 5690 5692 5697 5697 5699 5713 5717 5723 5726 5731 5737 5742 5745 5749 5753 5757 5760 5764 5767 5770 5772 5774 5776 5777 5779 5780 5781 5781 5781 5781 5780 5779 5777 5776 5775
5642 5648 5655 5662 5668 5673 5676 5680 5684 5685 5687 5691 5692 5694 5705 5711 5716 5721 5724 5728 5734 5739 5742 5744 5748 5752 5755 5758 5761 5764 5765 5767 5768 5770 5771 5772 5772 5771 5771 5770 5769 5768 5766 5765
5645 5650 5655 5661 5665 5670 5673 5676 5680 5683 5684 5684 5686 5689 5696 5703 5708 5714 5717 5720 5725 5731 5734 5737 5740 5744 5747 5750 5753 5755 5756 5758 5760 5761 5761 5761 5761 5761 5761 5760 5759 5758 5756 5755
5645 5649 5654 5658 5662 5666 5668 5673 5677 5679 5679 5679 5681 5683 5690 5696 5702 5706 5709 5713 5717 5722 5726 5729 5732 5735 5738 5741 5743 5745 5747 5749 5751 5751 5752 5752 5752 5752 5751 5750 5750 5749 5747 5746
5646 5650 5653 5655 5659 5662 5664 5669 5673 5675 5675 5675 5676 5680 5684 5689 5693 5696 5698 5701 5706 5711 5716 5719 5723 5727 5730 5732 5734 5736 5738 5740 5741 5742 5742 5742 5742 5742 5741 5741 5740 5740 5739 5737
5644 5645 5647 5651 5655 5659 5663 5666 5668 5670 5672 5671 5671 5675 5677 5681 5686 5689 5692 5695 5700 5703 5707 5711 5715 5718 5721 5723 5726 5728 5729 5730 5731 5731 5732 5732 5732 5732 5732 5732 5732 5731 5729 5728
5642 5643 5645 5649 5654 5656 5659 5662 5665 5666 5667 5667 5667 5671 5673 5677 5680 5683 5685 5688 5690 5694 5699 5703 5707 5710 5712 5714 5716 5717 5719 5720 5721 5722 5722 5722 5723 5723 5723 5723 5722 5721 5721 5719
5640 5642 5644 5645 5649 5653 5656 5660 5661 5662 5662 5665 5664 5667 5670 5672 5675 5677 5680 5682 5685 5688 5691 5696 5699 5702 5703 5705 5706 5708 5710 5711 5712 5712 5713 5713 5714 5714 5714 5714 5714 5713 5712 5711
5639 5640 5642 5643 5645 5648 5650 5652 5656 5656 5659 5658 5663 5662 5665 5668 5670 5672 5674 5677 5680 5683 5686 5689 5692 5694 5695 5697 5698 5699 5701 5702 5703 5704 5705 5705 5705 5706 5706 5705 5705 5704 5703 5702
5637 5638 5640 5641 5642 5644 5647 5649 5652 5652 5653 5655 5656 5660 5661 5664 5666 5668 5669 5672 5674 5676 5679 5682 5685 5687 5688 5690 5691 5692 5693 5694 5695 5696 5697 5697 5696 5697 5697 5696 5696 5695 5693 5692
5634 5635 5636 5637 5638 5640 5643 5645 5646 5647 5648 5650 5652 5656 5657 5660 5661 5663 5664 5666 5669 5671 5674 5676 5679 5681 5682 5683 5684 5685 5686 5687 5687 5687 5687 5688 5688 5687 5687 5687 5686 5685 5684 5683
5631 5632 5632 5634 5634 5635 5639 5640 5642 5643 5644 5645 5649 5651 5654 5655 5656 5657 5660 5662 5665 5667 5669 5671 5672 5674 5674 5676 5677 5678 5679 5680 5680 5680 5680 5679 5679 5678 5678 5678 5677 5677 5676 5675
5628 5628 5628 5629 5630 5633 5634 5635 5637 5638 5640 5642 5644 5646 5650 5651 5651 5653 5656 5657 5659 5662 5663 5664 5666 5667 5668 5669 5671 5672 5672 5672 5673 5673 5673 5672 5672 5672 5671 5671 5670 5670 5669 5667
5624 5624 5625 5626 5627 5628 5630 5631 5632 5634 5636 5637 5639 5640 5643 5645 5647 5649 5650 5652 5654 5655 5657 5659 5660 5661 5662 5663 5664 5665 5665 5666 5666 5667 5667 5667 5666 5665 5664 5664 5664 5663 5661 5660
5619 5620 5621 5621 5623 5626 5626 5626 5628 5630 5634 5632 5634 5635 5637 5639 5641 5643 5645 5647 5648 5650 5651 5652 5654 5655 5657 5658 5658 5659 5659 5661 5661 5661 5661 5662 5661 5660 5659 5658 5657 5656 5655 5654
5615 5615 5616 5618 5619 5621 5621 5622 5624 5625 5626 5628 5630 5632 5633 5635 5636 5637 5639 5641 5642 5644 5645 5647 5648 5649 5651 5652 5652 5654 5655 5655 5656 5655 5656 5656 5655 5654 5653 5651 5650 5649 5648 5647
5610 5612 5612 5614 5615 5615 5616 5618 5619 5620 5622 5624 5626 5627 5628 5630 5631 5632 5634 5636 5637 5638 5640 5641 5642 5643 5644 5646 5647 5648 5649 5649 5650 5650 5651 5651 5649 5648 5647 5646 5644 5643 5642 5640
5605 5605 5607 5608 5609 5610 5611 5613 5614 5615 5617 5619 5621 5622 5623 5625 5626 5627 5629 5631 5632 5633 5634 5635 5636 5637 5639 5640 5640 5641 5642 5643 5644 5644 5644 5644 5643 5641 5640 5639 5638 5636 5634 5632
5600 5601 5601 5603 5604 5605 5606 5607 5609 5610 5612 5614 5616 5617 5619 5620 5621 5623 5624 5625 5626 5627 5628 5629 5630 5631 5633 5633 5634 5634 5635 5636 5638 5638 5638 5637 5635 5635 5634 5632 5630 5629 5628 5625
5593 5595 5596 5597 5598 5599 5601 5602 5604 5605 5606 5608 5610 5611 5613 5614 5616 5617 5618 5619 5619 5620 5621 5622 5624 5625 5626 5627 5627 5628 5628 5630 5631 5631 5630 5629 5629 5627 5626 5625 5623 5621 5619 5617
Wind_Speed
55 53 40 36 40 38 32 29 33 37 39 40 40 39 46 44 42 40 44 45 47 46 46 45 45 44 42 40 39 37 35 35 37 36 36 35 33 34 34 34 33 35 35 35
46 36 32 39 40 36 31 29 30 35 39 41 41 44 40 44 42 39 41 43 45 48 49 47 45 45 41 38 38 39 40 40 38 36 36 36 37 37 38 38 37 36 36 38
38 40 33 36 38 35 31 24 26 31 35 38 42 48 47 40 40 38 37 40 45 45 48 49 46 43 42 41 40 40 38 39 39 38 37 37 38 39 39 40 41 40 40 40
41 38 34 34 36 34 31 28 28 28 30 35 36 43 45 40 41 40 39 38 41 44 48 47 49 47 43 43 41 40 38 37 38 38 39 39 40 40 41 39 38 39 42 44
41 35 34 33 34 35 32 29 27 28 26 30 35 38 42 46 41 42 38 40 40 42 44 45 45 45 42 42 47 48 47 44 43 42 40 40 41 41 40 38 37 39 41 43
41 39 34 33 33 31 27 26 27 27 31 31 32 35 44 42 41 42 40 40 42 41 40 40 43 41 42 41 40 42 46 44 41 42 44 44 41 38 37 38 40 41 42 43
41 38 30 31 32 29 29 25 26 28 31 31 34 39 37 39 41 40 45 43 42 45 43 40 38 38 42 41 40 41 43 44 44 44 43 41 39 39 40 42 43 45 44 43
37 39 32 27 27 27 30 28 25 23 24 31 32 36 33 38 40 37 40 44 43 44 43 41 38 36 38 40 41 40 39 39 39 38 37 38 40 42 42 43 43 43 43 42
26 30 30 29 29 26 29 28 29 26 22 20 29 33 33 35 39 34 35 39 46 44 42 40 40 40 39 39 38 37 37 36 37 38 39 41 43 43 43 43 42 42 42 42
29 28 32 33 32 37 27 23 24 23 23 20 20 26 32 32 31 32 33 33 37 47 40 39 39 40 39 38 38 38 39 41 43 43 46 45 45 45 43 41 41 41 40 40
19 23 28 31 29 25 30 28 24 20 19 19 20 22 28 30 31 31 30 33 36 42 41 39 38 37 37 38 40 42 43 43 43 43 45 44 42 41 40 39 39 39 39 38
11 16 23 23 25 26 28 27 27 26 22 21 21 18 18 23 26 29 30 32 31 36 39 38 38 39 40 41 41 41 41 42 43 42 41 39 38 38 37 37 37 37 37 36
12 13 21 24 27 29 30 26 25 25 21 22 22 17 16 17 18 21 26 30 37 36 37 40 39 38 39 40 41 41 42 41 38 36 35 36 35 34 34 35 35 35 35 35
16 15 13 16 22 27 31 26 24 26 26 18 13 11 12 16 18 20 21 22 24 25 35 38 34 33 31 33 34 34 34 33 32 32 32 32 32 33 33 33 34 35 35 35
15 15 14 15 17 18 21 27 25 28 27 26 15 14 15 16 20 22 23 23 24 27 28 29 31 29 28 27 28 28 28 28 29 30 30 31 32 32 32 32 33 34 36 35
17 17 16 15 18 20 19 20 21 18 26 27 20 16 14 15 16 16 16 20 20 22 24 23 22 24 24 25 25 25 26 27 28 29 30 31 31 32 33 34 36 37 36 34
18 22 23 22 20 20 19 18 18 22 24 23 24 18 21 18 19 20 21 20 19 19 22 23 23 24 25 24 25 25 26 26 27 28 30 31 32 34 35 35 32 32 31 29
14 17 21 24 27 28 21 21 21 21 23 24 20 21 17 13 19 24 23 20 21 21 21 21 23 24 24 24 24 26 25 25 26 26 26 25 25 25 26 27 28 28 29 29
13 13 15 18 23 24 23 25 24 24 25 24 24 24 20 19 19 17 17 19 19 20 20 21 22 22 21 21 21 22 22 21 20 20 20 20 21 22 23 25 25 26 25 27
13 15 16 16 19 18 18 21 22 23 21 20 21 22 18 19 19 20 20 20 19 20 20 21 21 21 21 21 21 20 19 19 16 17 18 18 18 19 20 21 23 25 26 27
14 14 16 18 18 15 16 20 19 19 19 19 16 16 16 17 19 19 20 21 21 21 21 20 20 20 21 21 19 19 18 19 18 16 16 17 16 16 17 20 21 23 24 25
14 15 15 16 17 18 17 17 17 18 18 16 17 18 17 16 18 18 18 19 19 19 20 20 20 20 20 21 20 19 19 20 20 17 17 18 18 18 18 19 21 22 23 23
17 15 15 16 17 17 17 17 18 19 19 18 18 18 17 17 19 19 19 19 19 20 20 21 22 21 21 20 21 21 20 21 20 18 20 21 20 19 20 20 20 21 22 24
16 17 16 16 16 18 17 17 18 18 19 18 18 18 18 17 17 18 18 19 21 21 21 22 22 22 22 22 23 23 21 19 20 19 19 20 20 21 21 21 22 22 23 25
17 16 17 17 19 17 18 19 18 19 19 19 19 18 18 17 17 18 20 22 22 22 22 23 24 24 23 23 23 24 20 20 20 20 19 20 21 23 23 22 23 25 27 29
21 19 17 17 19 22 22 22 21 21 21 21 21 21 21 20 20 21 22 23 24 25 25 24 24 26 22 23 24 24 20 20 21 20 20 21 23 24 24 25 25 26 29 32
Wind_Direction
197 198 203 199 202 206 215 218 227 229 224 218 220 225 225 223 225 219 222 225 224 225 228 228 229 234 241 243 243 245 247 251 259 262 265 267 268 272 277 279 278 277 277 280
192 185 194 196 200 203 209 211 219 222 223 224 221 222 223 227 226 223 221 222 225 228 229 232 233 234 238 246 248 248 248 246 250 258 265 271 277 280 281 281 279 279 277 279
176 181 188 192 198 203 209 211 216 222 228 227 227 224 222 225 227 229 226 226 227 229 232 232 234 234 235 239 245 249 253 259 258 257 260 264 267 270 272 275 280 282 281 281
183 190 192 192 196 203 208 214 218 224 231 233 237 232 224 222 224 227 230 231 230 231 232 234 235 237 238 241 246 251 254 258 264 267 268 268 268 270 271 269 269 272 277 280
182 188 191 192 195 198 206 214 220 228 241 239 233 235 221 222 224 227 226 227 232 235 235 236 238 239 238 240 244 245 250 254 257 263 267 270 272 271 268 269 270 270 272 274
181 181 187 190 194 197 206 218 226 231 235 241 239 237 221 223 226 233 232 229 233 240 240 239 238 235 236 239 243 248 251 249 254 259 263 265 267 267 268 272 274 272 272 274
178 186 185 186 192 198 207 221 232 241 244 242 239 236 221 220 222 229 229 229 228 236 244 244 240 238 238 239 242 245 245 247 249 253 256 258 260 264 268 270 270 272 275 275
172 177 185 190 197 205 216 225 233 253 260 253 251 238 225 220 220 228 231 229 230 232 236 239 240 238 240 241 242 243 245 247 250 252 254 259 266 265 268 270 272 273 274 276
203 203 207 213 210 217 222 231 235 241 258 251 245 236 225 216 221 224 228 229 228 227 231 235 237 239 238 237 239 242 245 248 252 255 261 266 267 269 271 272 272 273 275 277
200 211 213 208 213 219 227 240 235 238 260 259 251 243 228 220 225 232 232 234 233 224 228 230 233 235 237 237 239 243 249 254 261 262 263 263 263 266 269 270 271 273 275 276
189 197 199 204 218 220 226 236 220 246 263 273 263 245 229 229 235 241 235 220 220 221 227 230 231 233 236 239 244 248 252 254 255 256 259 262 265 266 266 268 271 272 272 272
218 212 214 216 218 221 225 216 231 245 268 263 257 244 234 237 240 249 235 220 225 229 231 232 233 236 241 245 247 249 253 257 258 260 262 263 263 264 266 267 268 268 270 271
222 204 204 213 217 226 219 229 227 248 248 254 258 240 229 236 243 244 250 236 222 230 231 232 237 241 244 248 250 252 254 257 259 259 258 259 261 263 265 267 269 269 270 271
218 209 204 207 216 226 228 235 240 235 252 255 241 239 239 240 238 234 234 240 242 245 229 232 239 245 250 253 253 255 255 255 256 257 258 261 264 266 268 268 268 270 271 269
216 220 221 220 219 219 225 228 235 251 248 234 247 252 245 240 241 241 235 232 237 238 240 241 243 249 250 251 251 251 253 255 256 258 260 263 264 266 265 269 272 272 273 275
227 224 220 218 229 234 232 237 241 245 227 242 252 241 250 248 249 252 234 226 237 237 237 239 239 244 250 250 251 252 255 257 259 261 262 264 265 266 269 273 274 275 276 275
230 229 232 234 236 239 238 241 239 236 240 242 249 249 248 243 231 231 243 230 234 235 241 240 240 241 245 248 252 258 260 262 265 266 267 267 268 270 272 273 273 280 280 278
237 241 238 237 241 242 241 241 243 240 239 246 244 245 245 246 232 228 232 234 235 235 239 244 246 245 248 251 254 258 261 262 265 267 267 268 268 271 272 273 276 281 280 281
244 244 247 245 242 242 241 245 246 243 243 243 247 249 245 241 240 236 234 234 234 237 241 243 249 251 249 250 254 258 260 259 259 261 265 269 269 272 274 276 279 279 279 282
254 253 246 242 239 243 242 243 245 246 245 248 243 244 239 236 236 231 237 243 248 248 249 249 251 254 254 254 256 255 255 254 255 262 268 272 275 278 277 278 279 280 282 280
252 253 249 249 236 243 244 237 237 241 242 241 237 230 227 231 233 233 237 240 244 248 251 250 248 248 254 254 250 249 251 252 253 259 268 273 274 279 282 282 283 283 281 280
258 256 250 247 241 245 238 235 233 232 233 236 235 236 240 240 244 246 247 247 249 251 251 250 249 250 251 251 248 248 254 254 255 260 266 270 276 282 284 284 282 281 281 282
250 252 251 244 245 241 239 232 232 234 230 232 235 241 245 242 242 245 247 249 249 248 247 251 249 250 251 252 251 250 256 261 260 265 270 273 277 284 285 283 281 278 281 282
247 249 250 245 242 241 237 235 235 235 234 235 237 238 240 246 248 248 246 245 245 248 250 257 254 252 254 255 255 253 254 260 261 264 271 276 279 285 287 283 280 278 275 280
246 250 249 246 241 241 240 237 234 237 235 234 234 235 240 243 247 250 251 254 253 252 255 258 255 253 258 259 254 251 248 253 259 262 267 276 284 284 286 285 282 281 277 280
238 242 248 244 246 239 240 243 240 237 240 241 240 241 242 246 251 255 258 259 257 252 255 260 255 251 252 256 253 246 242 246 255 262 270 278 284 285 284 282 282 280 281 281